RH
26 23 21 20 21 31 33 25 30 30 38 54 70 76 74 75 68 78 87 94 97 96 77 48 48 52 58 60 68 83 86 88
31 27 24 23 22 29 46 40 27 30 36 46 58 72 78 77 76 74 95 92 98 96 85 56 55 59 63 64 76 90 92 92
37 31 28 28 29 34 44 58 50 23 28 35 46 61 76 80 79 71 76 94 90 91 88 61 60 72 69 78 77 91 95 96
46 42 35 32 36 39 44 46 63 53 32 35 51 63 77 85 79 72 77 75 85 84 85 79 79 94 96 88 90 84 89 97
56 53 49 42 39 43 48 51 57 73 60 52 38 47 58 75 82 76 77 78 77 75 80 90 92 94 98 95 94 93 92 86
63 60 57 50 43 44 48 56 58 69 80 63 54 45 50 63 84 82 85 79 71 61 78 84 90 91 98 97 96 98 97 87
71 65 62 57 49 46 46 50 64 64 78 71 72 59 52 57 75 91 82 83 77 67 72 73 74 83 93 97 99 97 93 87
83 70 64 60 53 49 50 52 56 67 69 84 84 72 70 55 65 81 86 76 79 69 60 68 72 80 91 96 95 98 90 86
87 81 70 62 59 56 54 54 52 61 73 86 94 79 71 75 71 59 71 77 72 72 63 60 67 76 82 87 96 89 85 73
84 86 79 68 63 58 60 56 53 53 58 86 96 92 75 81 83 73 79 85 75 73 70 67 59 68 70 83 86 71 60 55
89 78 83 74 67 60 60 59 57 54 52 51 84 91 91 84 79 75 76 88 86 72 76 71 68 68 71 79 78 71 59 49
85 91 84 83 72 63 60 57 60 58 49 47 52 78 89 92 87 80 74 81 89 75 77 70 66 75 66 76 69 65 64 55
84 87 92 96 81 73 66 63 60 61 58 48 46 55 68 83 85 84 80 83 85 87 71 71 67 74 57 67 71 72 58 49
78 79 83 91 87 78 73 67 62 62 62 57 57 61 74 87 83 75 85 84 84 90 89 66 66 65 56 54 66 77 70 55
72 74 72 81 84 79 78 71 62 62 58 57 53 50 53 75 97 83 75 85 86 86 86 77 62 58 51 53 56 72 74 65
72 69 68 69 78 80 72 70 65 60 59 53 53 50 49 61 86 85 83 80 82 87 88 90 71 58 53 51 53 62 69 63
67 68 66 65 66 69 64 64 65 60 56 53 53 51 47 46 61 89 91 82 78 86 92 95 90 68 57 47 53 53 58 64
66 68 70 69 67 67 61 60 59 58 55 53 47 49 50 45 57 78 87 94 76 86 87 88 92 86 63 48 47 53 53 49
59 59 66 67 59 55 57 59 57 56 57 52 49 46 50 50 48 53 62 80 83 86 91 89 86 88 70 53 38 46 51 48